Dickinson, ND

10:44 AM MST on January 21, 2018 (GMT -0700)
Dickinson Municipal

Weather History for KDIK - May, 2014

Change the Weather History Date:

Thursday, May 8, 2014

  Actual Average Record
Temperature  
Mean Temperature 42 °F 51 °F  
Max Temperature 53 °F 64 °F 95 °F (1934)
Min Temperature 30 °F 37 °F 15 °F (1945)
Degree Days  
Heating Degree Days 23 15  
Month to date heating degree days 158 127  
Since 1 July heating degree days 8771 8189  
Cooling Degree Days 0 0  
Month to date cooling degree days 0 0  
Year to date cooling degree days 0 1  
Moisture  
Dew Point 26 °F    
Average Humidity 60    
Maximum Humidity 89    
Minimum Humidity 30    
Precipitation  
Precipitation 0.00 in 0.07 in 2.67 in (1970)
Month to date precipitation 0.40 0.54  
Year to date precipitation 2.26 3.33  
Sea Level Pressure  
Sea Level Pressure 29.93 in    
Wind  
Wind Speed 7 mph (North)    
Max Wind Speed 16 mph    
Max Gust Speed 22 mph    
Visibility 10 miles    
Events      
T = Trace of Precipitation, MM = Missing Value Source: NWS Daily Summary

Daily Weather History Graph

Daily Weather History Graph

Search for Another Location

Airport or City:

Trip Planner

Search our weather history database for the weather conditions in past years. The results will help you decide how hot, cold, wet, or windy it might be!

Date:

Astronomy

May. 08, 2014 Rise Set
Actual Time 5:25 AM MDT 8:10 PM MDT
Civil Twilight 4:50 AM MDT 8:45 PM MDT
Nautical Twilight 4:06 AM MDT 9:29 PM MDT
Astronomical Twilight 3:15 AM MDT 10:22 PM MDT
Moon 1:51 PM MDT (5/8) 2:21 AM MDT (5/8)
Length of Visible Light 15h 54m
Length of Day
14h 44m
Waxing Gibbous, 65% of the Moon is Illuminated
May 8
Waxing Gibbous
May 14
Full
May 21
Last Quarter
May 28
New
Jun 5
First Quarter

Hourly Weather History & Observations

Time (MDT) Temp. Windchill Dew Point Humidity Pressure Visibility Wind Dir Wind Speed Gust Speed Precip Events Conditions
12:56 AM 34.0 °F 28.0 °F 30.0 °F 85% 29.98 in 10.0 mi NW 6.9 mph - N/A   Clear
1:56 AM 35.1 °F 31.0 °F 30.0 °F 82% 29.99 in 10.0 mi NW 4.6 mph - N/A   Overcast
2:56 AM 36.0 °F 31.1 °F 30.0 °F 79% 29.99 in 10.0 mi North 5.8 mph - N/A   Overcast
3:56 AM 36.0 °F 31.1 °F 30.0 °F 79% 29.99 in 10.0 mi NNW 5.8 mph - N/A   Overcast
4:56 AM 36.0 °F 30.3 °F 30.0 °F 79% 29.97 in 10.0 mi NNW 6.9 mph - N/A   Overcast
5:56 AM 35.1 °F 28.6 °F 28.9 °F 78% 29.97 in 10.0 mi NNW 8.1 mph - N/A   Overcast
6:56 AM 37.0 °F 31.6 °F 28.0 °F 70% 29.99 in 10.0 mi NNW 6.9 mph - N/A   Overcast
7:56 AM 39.0 °F 31.4 °F 28.0 °F 65% 29.97 in 10.0 mi NNE 12.7 mph - N/A   Overcast
8:56 AM 41.0 °F 33.9 °F 26.1 °F 55% 29.97 in 10.0 mi NNE 12.7 mph - N/A   Overcast
9:56 AM 43.0 °F 36.8 °F 26.1 °F 51% 29.98 in 10.0 mi NNE 11.5 mph - N/A   Overcast
10:56 AM 46.0 °F 40.6 °F 26.1 °F 46% 29.95 in 10.0 mi NNE 11.5 mph - N/A   Overcast
11:56 AM 48.9 °F - 24.1 °F 38% 29.94 in 10.0 mi North 12.7 mph 18.4 mph N/A   Overcast
12:56 PM 50.0 °F - 23.0 °F 35% 29.92 in 10.0 mi North 12.7 mph 18.4 mph N/A   Overcast
1:56 PM 51.1 °F - 23.0 °F 33% 29.91 in 10.0 mi NNE 9.2 mph 17.3 mph N/A   Overcast
2:56 PM 51.1 °F - 21.9 °F 32% 29.90 in 10.0 mi North 6.9 mph 16.1 mph N/A   Overcast
3:56 PM 51.1 °F - 21.9 °F 32% 29.88 in 10.0 mi North 8.1 mph - N/A   Overcast
4:56 PM 52.0 °F - 24.1 °F 34% 29.87 in 10.0 mi West 4.6 mph - N/A   Scattered Clouds
5:56 PM 52.0 °F - 25.0 °F 35% 29.88 in 10.0 mi WNW 6.9 mph - N/A   Overcast
6:56 PM 50.0 °F - 26.1 °F 39% 29.88 in 10.0 mi NNE 4.6 mph - N/A   Scattered Clouds
7:56 PM 48.0 °F - 26.1 °F 42% 29.88 in 10.0 mi East 3.5 mph - N/A   Clear
8:56 PM 44.1 °F 42.5 °F 25.0 °F 47% 29.88 in 10.0 mi East 3.5 mph - N/A   Clear
9:56 PM 37.0 °F 34.5 °F 24.1 °F 59% 29.88 in 10.0 mi SE 3.5 mph - N/A   Clear
11:56 PM 37.9 °F 34.4 °F 25.0 °F 60% 29.84 in 10.0 mi South 4.6 mph - N/A   Clear